Weather History for Paganella, Italy

Change the Weather History Date:

Sunday, October 23, 2011

  Actual Average Record
Temperature  
Mean Temperature 27 °F -  
Max Temperature 32 °F 36 °F 55 °F (2012)
Min Temperature 22 °F 28 °F 22 °F (2014)
Degree Days  
Heating Degree Days 38    
Moisture  
Dew Point 24 °F    
Average Humidity 89    
Maximum Humidity 100    
Minimum Humidity 63    
Precipitation  
Precipitation 0.00 in 0.07 in - ()
Sea Level Pressure  
Sea Level Pressure 30.03 in    
Wind  
Wind Speed 5 mph ()    
Max Wind Speed 13 mph    
Max Gust Speed -    
Visibility 2.9 miles    
Events Fog    
Averages and records for this station are not official NWS values.
T = Trace of Precipitation, MM = Missing Value Source: Averaged Metar Reports

Daily Weather History Graph

Daily Weather History Graph

Search for Another Location

Airport:

Trip Planner

Search our weather history database for the weather conditions in past years. The results will help you decide how hot, cold, wet, or windy it might be!

Date:

Astronomy

Oct. 23, 2011 Rise Set
Actual Time 7:43 AM CEST 6:16 PM CEST
Civil Twilight 7:12 AM CEST 6:47 PM CEST
Nautical Twilight 6:37 AM CEST 7:22 PM CEST
Astronomical Twilight 6:02 AM CEST 7:56 PM CEST
Moon 3:17 AM CEST (10/23) 4:08 PM CEST (10/23)
Length of Visible Light 11h 34m
Length of Day
10h 33m
Waning Crescent, 17% of the Moon is Illuminated
Oct 23
Waning Crescent
Oct 26
New
Nov 2
First Quarter
Nov 10
Full
Nov 18
Last Quarter

Hourly Weather History & Observations

Time (CEST) Temp. Windchill Dew Point Humidity Pressure Visibility Wind Dir Wind Speed Gust Speed Precip Events Conditions
12:55 AM 24.8 °F - 23.0 °F 93% 30.06 in - WSW 2.3 mph - N/A   Clear
1:55 AM 24.8 °F - 23.0 °F 93% 30.06 in 5.0 mi Calm Calm - N/A   Unknown
2:00 AM 25 °F - 22 °F 85%  in 5 mi Calm Calm - -   Mist
2:55 AM 24.8 °F 17.9 °F 23.0 °F 93% 30.04 in 0.0 mi NNE 5.8 mph - N/A Fog Light Freezing Fog
3:55 AM 24.8 °F 16.9 °F 24.8 °F 100% 30.04 in 0.0 mi NNE 6.9 mph - N/A Fog Light Freezing Fog
4:55 AM 23.0 °F 13.1 °F 23.0 °F 100% 30.04 in 0.0 mi North 9.2 mph - N/A Fog Light Freezing Fog
5:00 AM 24 °F - 24 °F 98%  in 0 mi North 9.2 mph - - Fog Heavy Fog
5:55 AM 23.0 °F 13.9 °F 23.0 °F 100% 30.04 in 0.0 mi North 8.1 mph - N/A Fog Light Freezing Fog
6:55 AM 23.0 °F 11.1 °F 23.0 °F 100% 30.01 in 0.0 mi North 12.7 mph - N/A Fog Light Freezing Fog
8:00 AM 23 °F - 23 °F 99%  in 0 mi NNE 11.5 mph - - Fog Heavy Fog
8:55 AM 23.0 °F 13.1 °F 23.0 °F 100% 30.04 in 0.1 mi NNE 9.2 mph - N/A Fog Light Freezing Fog
9:55 AM 23.0 °F 13.1 °F 21.2 °F 93% 30.04 in 6.2 mi North 9.2 mph - N/A   Partly Cloudy
10:55 AM 23.0 °F 15.8 °F 19.4 °F 86% 30.04 in - North 5.8 mph - N/A   Clear
11:00 AM 24 °F - 20 °F 79%  in 31 mi North 5.8 mph - -   Partly Cloudy
12:55 PM 28.4 °F 24.6 °F 23.0 °F 80% 30.04 in 6.2 mi Variable 3.5 mph - N/A   Partly Cloudy
1:55 PM 30.2 °F 26.7 °F 23.0 °F 75% 30.04 in 6.2 mi Variable 3.5 mph - N/A   Partly Cloudy
2:00 PM 30 °F - 22 °F 63%  in 25 mi 3.5 mph - -   Partly Cloudy
2:55 PM 30.2 °F 24.3 °F 23.0 °F 75% 30.04 in 6.2 mi SE 5.8 mph - N/A   Partly Cloudy
3:55 PM 30.2 °F 25.4 °F 24.8 °F 80% 30.04 in 6.2 mi SE 4.6 mph - N/A   Partly Cloudy
4:55 PM 30.2 °F 24.3 °F 24.8 °F 80% 30.01 in 6.2 mi SE 5.8 mph - N/A   Partly Cloudy
5:55 PM 32.0 °F 26.4 °F 24.8 °F 75% 30.01 in 6.2 mi South 5.8 mph - N/A   Partly Cloudy
6:55 PM 28.4 °F 22.2 °F 23.0 °F 80% 30.01 in 6.2 mi South 5.8 mph - N/A   Partly Cloudy
7:55 PM 28.4 °F 19.7 °F 24.8 °F 86% 30.01 in 6.2 mi South 9.2 mph - N/A   Partly Cloudy
9:55 PM 26.6 °F 17.5 °F 26.6 °F 100% 30.01 in 0.0 mi South 9.2 mph - N/A Fog Light Freezing Fog
10:55 PM 26.6 °F 18.2 °F 26.6 °F 100% 30.01 in 0.0 mi South 8.1 mph - N/A Fog Light Freezing Fog
11:00 PM 27 °F - 27 °F 100%  in 0 mi South 8.1 mph - - Fog Heavy Fog
11:55 PM 26.6 °F 17.5 °F 26.6 °F 100% 30.01 in 0.4 mi South 9.2 mph - N/A Fog Light Freezing Fog